Regional Weather Roundup
Issued by NWS Albany, NY

Home | Current Version | Previous Version | Text Only | Print | Product List | Glossary On
Versions: 1 2 3 4 5 6 7 8 9 10 11 12 13 14 15 16 17 18 19 20 21 22 23 24 25 26 27 28 29 30 31 32 33 34 35 36 37 38 39 40 41 42 43 44 45 46 47 48 49 50
731
ASUS41 KALY 250710
RWRALY

NEW YORK STATE HOURLY WEATHER ROUNDUP
NATIONAL WEATHER SERVICE ALBANY NY
300 AM EDT MON JUL 25 2016

NOTE: "FAIR" INDICATES FEW OR NO CLOUDS BELOW 12,000 FEET WITH NO
SIGNIFICANT WEATHER AND/OR NO OBSTRUCTIONS TO VISIBILITY.

NYZ032-033-038>043-046>054-057>066-NYZ062>081-082-084-250800-
EAST


CITY           SKY/WX    TMP DP  RH WIND       PRES   REMARKS
ALBANY         CLEAR     68  64  87 N3        29.94S
GLENS FALLS    CLOUDY    65  62  90 CALM      29.94F
POUGHKEEPSIE   CLEAR     70  65  84 CALM      29.93S
NEWBURGH       CLEAR     72  68  88 CALM      29.96S
MONTGOMERY     PTCLDY    68  65  90 CALM      29.94S
WHITE PLAINS   CLOUDY    72  67  84 CALM      29.95F
ISLIP          CLEAR     75  72  90 SW9       29.95F
NEW YORK CITY  CLOUDY    83  65  54 S6        29.93F
CENTRAL PARK   CLOUDY    81  65  58 VRB3      29.97F
$$

NYZ005>009-017-018-044>046-055-056-250800-
CENTRAL


CITY           SKY/WX    TMP DP  RH WIND       PRES   REMARKS
FULTON         MOCLDY    72  63  73 CALM      29.90F
SYRACUSE       PTCLDY    68  62  81 E3        29.91S
ROME           CLOUDY    68  64  87 CALM      29.94S
ELMIRA         CLEAR     62  57  83 W3        29.95S
BINGHAMTON     CLOUDY    67  60  78 CALM      29.97S
MONTICELLO     CLOUDY    68  61  77 NE3       30.00S
$$

NYZ026>034-041>043-087-250800-
NORTH


CITY           SKY/WX    TMP DP  RH WIND       PRES   REMARKS
WATERTOWN      CLEAR     63  56  78 CALM      29.89F
FORT DRUM      NOT AVBL
MASSENA        CLEAR     61  57  87 CALM      29.90F
SARANAC LAKE   CLOUDY    58  56  93 CALM      29.96F
PLATTSBURGH    CLOUDY    63  60  90 CALM      29.93F
$$

NYZ001>004-010>016-019>021-085-250800-
WEST


CITY           SKY/WX    TMP DP  RH WIND       PRES   REMARKS
NIAGARA FALLS  CLOUDY    76  67  73 S9        29.88F
BUFFALO        PTCLDY    72  64  76 S6        29.89F
DUNKIRK        CLEAR     76  68  76 S15       29.90F
JAMESTOWN      PTCLDY    68  64  88 S9        29.99S
WELLSVILLE     PTCLDY    70  66  87 SW6       30.03S
ROCHESTER      PTCLDY    70  66  87 SW6       29.90F
PENN YAN       CLEAR     71  63  75 SW7       29.94F
$$

             KEY
       WCI = WIND CHILL INDEX
       VSB = VISIBILITY
       HX  = HEAT INDEX
$$




USA.gov is the U.S. government's official web portal to all federal, state and local government web resources and services.